Green Bay, WI

4:50 PM CDT on October 20, 2017 (GMT -0500)
Austin Straubel International

Weather History for KGRB - March, 2013

Change the Weather History Date:

Tuesday, March 26, 2013

  Actual Average Record
Temperature  
Mean Temperature 35 °F 35 °F  
Max Temperature 40 °F 44 °F 78 °F (2007)
Min Temperature 30 °F 26 °F 0 °F (1923)
Degree Days  
Heating Degree Days 30 30  
Month to date heating degree days 1048 916  
Since 1 July heating degree days 6491 6756  
Cooling Degree Days 0 0  
Month to date cooling degree days 0 0  
Year to date cooling degree days 0 0  
Moisture  
Dew Point 25 °F    
Average Humidity 71    
Maximum Humidity 82    
Minimum Humidity 59    
Precipitation  
Precipitation T in 0.06 in 1.31 in (1906)
Month to date precipitation 1.85 1.51  
Year to date precipitation 6.51 3.75  
Snow  
Snow T in 0.10 in 8.20 in (1888)
Month to date snowfall 8.4 7.2  
Since 1 July snowfall 66.4 47.4  
Snow Depth 4.00 in    
Sea Level Pressure  
Sea Level Pressure 30.18 in    
Wind  
Wind Speed 8 mph (NW)    
Max Wind Speed 15 mph    
Max Gust Speed 19 mph    
Visibility 10 miles    
Events Snow    
T = Trace of Precipitation, MM = Missing Value Source: NWS Daily Summary

Daily Weather History Graph

Daily Weather History Graph

Search for Another Location

Airport or City:

Trip Planner

Search our weather history database for the weather conditions in past years. The results will help you decide how hot, cold, wet, or windy it might be!

Date:

Astronomy

Mar. 26, 2013 Rise Set
Actual Time 6:44 AM CDT 7:12 PM CDT
Civil Twilight 6:14 AM CDT 7:42 PM CDT
Nautical Twilight 5:40 AM CDT 8:16 PM CDT
Astronomical Twilight 5:05 AM CDT 8:52 PM CDT
Moon 6:50 PM CDT (3/26) 6:01 AM CDT (3/26)
Length of Visible Light 13h 27m
Length of Day
12h 28m
Waxing Gibbous, 99% of the Moon is Illuminated
Mar 26
Waxing Gibbous
Mar 27
Full
Apr 2
Last Quarter
Apr 10
New
Apr 18
First Quarter

Hourly Weather History & Observations

Time (CDT) Temp. Windchill Dew Point Humidity Pressure Visibility Wind Dir Wind Speed Gust Speed Precip Events Conditions
12:53 AM 32.0 °F 25.6 °F 23.0 °F 69% 30.13 in 10.0 mi NNW 6.9 mph - N/A   Overcast
1:53 AM 30.9 °F 23.5 °F 21.9 °F 69% 30.13 in 10.0 mi NW 8.1 mph - N/A   Overcast
2:53 AM 30.0 °F 21.1 °F 21.9 °F 72% 30.12 in 9.0 mi NW 10.4 mph - 0.00 in Snow Light Snow
3:53 AM 30.0 °F 21.7 °F 21.9 °F 72% 30.13 in 10.0 mi NW 9.2 mph - 0.00 in   Overcast
4:53 AM 30.0 °F 21.1 °F 21.9 °F 72% 30.13 in 10.0 mi NW 10.4 mph - N/A   Overcast
5:53 AM 30.0 °F 21.1 °F 21.9 °F 72% 30.14 in 10.0 mi NNW 10.4 mph - N/A   Overcast
6:53 AM 30.0 °F 21.7 °F 21.9 °F 72% 30.16 in 10.0 mi NW 9.2 mph - N/A   Overcast
7:53 AM 30.0 °F 20.5 °F 23.0 °F 75% 30.18 in 10.0 mi NW 11.5 mph - N/A   Overcast
8:53 AM 32.0 °F 23.0 °F 23.0 °F 69% 30.19 in 10.0 mi NNW 11.5 mph - N/A   Overcast
9:53 AM 33.1 °F 24.9 °F 25.0 °F 72% 30.19 in 10.0 mi NNW 10.4 mph - N/A   Overcast
10:53 AM 35.1 °F 26.9 °F 26.1 °F 70% 30.20 in 10.0 mi NW 11.5 mph - N/A   Overcast
11:53 AM 37.0 °F 30.4 °F 27.0 °F 67% 30.20 in 10.0 mi NW 9.2 mph - N/A   Overcast
12:53 PM 37.0 °F 29.3 °F 27.0 °F 67% 30.19 in 10.0 mi NW 11.5 mph - N/A   Overcast
1:53 PM 39.9 °F 33.4 °F 27.0 °F 60% 30.18 in 10.0 mi WNW 10.4 mph - N/A   Overcast
2:53 PM 39.0 °F 31.8 °F 26.1 °F 60% 30.18 in 10.0 mi NW 11.5 mph - N/A   Overcast
3:53 PM 39.0 °F 32.8 °F 27.0 °F 62% 30.18 in 10.0 mi WNW 9.2 mph - N/A   Overcast
4:53 PM 37.9 °F 31.5 °F 26.1 °F 62% 30.19 in 10.0 mi West 9.2 mph - N/A   Overcast
5:53 PM 37.9 °F 35.5 °F 26.1 °F 62% 30.20 in 10.0 mi NW 3.5 mph - N/A   Overcast
6:53 PM 36.0 °F 30.3 °F 28.0 °F 73% 30.22 in 10.0 mi NE 6.9 mph - 0.00 in   Overcast
7:53 PM 36.0 °F 32.1 °F 28.0 °F 73% 30.22 in 9.0 mi NE 4.6 mph - 0.00 in Snow Light Snow
8:53 PM 35.1 °F 32.2 °F 28.0 °F 76% 30.24 in 10.0 mi North 3.5 mph - 0.00 in   Overcast
9:53 PM 34.0 °F 31.0 °F 28.9 °F 82% 30.25 in 10.0 mi WNW 3.5 mph - N/A   Overcast
10:53 PM 35.1 °F 30.1 °F 26.1 °F 70% 30.25 in 10.0 mi North 5.8 mph - N/A   Overcast
11:53 PM 34.0 °F 29.8 °F 26.1 °F 73% 30.25 in 10.0 mi NW 4.6 mph - N/A   Overcast